Location: FWAS Thompsen Ranch
(33.4402°N, 97.5607°W)
Time: 13:19:16
(UTC-06:00)

Tiangong 2 - Visible Passes

Search period start: 21 November 2017 00:00
Search period end: 01 December 2017 00:00
Orbit: 386 x 392 km, 42.8° (Epoch: 21 November)

Date Brightness Start Highest point End Pass type
(mag) Time Alt. Az. Time Alt. Az. Time Alt. Az.
23 Nov 4.2 06:34:02 10° S 06:36:10 17° SE 06:38:18 10° E visible
25 Nov 2.7 06:13:30 10° SSW 06:16:27 35° SE 06:19:25 10° ENE visible
26 Nov 3.6 05:17:21 16° SSE 05:18:23 18° SE 05:20:40 10° E visible
27 Nov 1.1 05:55:16 28° SW 05:56:47 80° SSE 05:59:59 10° ENE visible
28 Nov 3.9 05:00:32 18° E 05:00:32 18° E 05:01:37 10° ENE visible
28 Nov 2.1 06:32:52 12° W 06:35:29 30° NNW 06:38:23 10° NE visible
29 Nov 2.0 05:37:54 39° NNE 05:37:54 39° NNE 05:40:17 10° NE visible
30 Nov 2.7 06:15:04 19° NW 06:16:01 21° NNW 06:18:33 10° NE visible
